Time,TemperatureF,DewpointF,PressureIn,WindDirection,WindDirectionDegrees,WindSpeedMPH,WindSpeedGustMPH,Humidity,HourlyPrecipIn,Conditions,Clouds,dailyrainin,SoftwareType,DateUTC
2013-01-30 00:05:00,36.0,29.5,30.26,ENE,78,0.0,0.0,77,0.00,NA,NA,-99.99,VWS Version 10.38,2013-01-30 05:05:00,
2013-01-30 00:10:00,35.8,29.3,30.26,ENE,78,0.0,0.0,77,0.00,NA,NA,-99.99,VWS Version 10.38,2013-01-30 05:10:00,
2013-01-30 00:15:00,35.8,29.3,30.26,ENE,78,0.0,0.0,77,0.00,NA,NA,-99.99,VWS Version 10.38,2013-01-30 05:15:00,
2013-01-30 00:20:00,35.8,29.3,30.26,ENE,78,0.0,0.0,77,0.00,NA,NA,-99.99,VWS Version 10.38,2013-01-30 05:20:00,
2013-01-30 00:30:00,35.6,29.1,30.26,ENE,78,0.0,0.0,77,0.00,NA,NA,-99.99,VWS Version 10.38,2013-01-30 05:30:00,
2013-01-30 00:35:00,35.6,29.1,30.26,ENE,78,0.0,0.0,77,0.00,NA,NA,-99.99,VWS Version 10.38,2013-01-30 05:35:00,
2013-01-30 00:40:00,35.4,29.2,30.26,ENE,78,0.0,0.0,78,0.00,NA,NA,-99.99,VWS Version 10.38,2013-01-30 05:40:00,
2013-01-30 00:45:00,35.6,29.4,30.26,ENE,78,0.0,0.0,78,0.00,NA,NA,-99.99,VWS Version 10.38,2013-01-30 05:45:00,
2013-01-30 00:50:00,35.6,29.4,30.26,SE,143,0.0,0.0,78,0.00,NA,NA,-99.99,VWS Version 10.38,2013-01-30 05:50:00,
2013-01-30 00:59:00,36.3,30.4,30.23,SE,143,0.0,0.0,79,0.00,NA,NA,-99.99,VWS Version 10.38,2013-01-30 05:59:00,
2013-01-30 01:04:00,36.9,31.0,30.23,ESE,110,0.0,0.0,79,0.00,NA,NA,-99.99,VWS Version 10.38,2013-01-30 06:04:00,
2013-01-30 01:14:00,37.2,31.3,30.23,ESE,110,0.0,0.0,79,0.00,NA,NA,-99.99,VWS Version 10.38,2013-01-30 06:14:00,
2013-01-30 01:19:00,37.4,31.5,30.23,ESE,102,0.0,0.0,79,0.00,NA,NA,-99.99,VWS Version 10.38,2013-01-30 06:19:00,
2013-01-30 01:24:00,37.6,31.7,30.23,SE,140,0.0,0.0,79,0.00,NA,NA,-99.99,VWS Version 10.38,2013-01-30 06:24:00,
2013-01-30 01:34:00,37.8,32.2,30.23,ENE,69,0.0,0.0,80,0.00,NA,NA,-99.99,VWS Version 10.38,2013-01-30 06:34:00,
2013-01-30 01:44:00,37.4,31.5,30.23,NE,55,0.0,0.0,79,0.00,NA,NA,-99.99,VWS Version 10.38,2013-01-30 06:44:00,
2013-01-30 01:49:00,37.0,31.1,30.23,NE,55,0.0,0.0,79,0.00,NA,NA,-99.99,VWS Version 10.38,2013-01-30 06:49:00,
2013-01-30 01:54:00,36.9,31.0,30.23,NE,55,0.0,0.0,79,0.00,NA,NA,-99.99,VWS Version 10.38,2013-01-30 06:54:00,
2013-01-30 01:59:00,36.9,31.0,30.23,NE,55,0.0,0.0,79,0.00,NA,NA,-99.99,VWS Version 10.38,2013-01-30 06:59:00,
2013-01-30 02:09:00,36.9,31.3,30.23,NE,55,0.0,0.0,80,0.00,NA,NA,-99.99,VWS Version 10.38,2013-01-30 07:09:00,
2013-01-30 02:14:00,36.7,31.1,30.23,NE,55,0.0,0.0,80,0.00,NA,NA,-99.99,VWS Version 10.38,2013-01-30 07:14:00,
2013-01-30 02:19:00,36.9,31.3,30.20,NE,55,0.0,0.0,80,0.00,NA,NA,-99.99,VWS Version 10.38,2013-01-30 07:19:00,
2013-01-30 03:54:00,39.4,34.3,30.17,SSW,205,0.0,0.0,82,0.00,NA,NA,-99.99,VWS Version 10.38,2013-01-30 08:54:00,
2013-01-30 03:59:00,38.8,33.5,30.17,East,92,0.0,0.0,81,0.00,NA,NA,-99.99,VWS Version 10.38,2013-01-30 08:59:00,
2013-01-30 04:04:00,38.7,33.7,30.17,SSW,210,0.0,0.0,82,0.00,NA,NA,-99.99,VWS Version 10.38,2013-01-30 09:04:00,
2013-01-30 04:09:00,38.7,33.7,30.17,SSW,210,0.0,0.0,82,0.00,NA,NA,-99.99,VWS Version 10.38,2013-01-30 09:09:00,
2013-01-30 04:19:00,39.7,35.3,30.14,ESE,113,0.0,0.0,84,0.00,NA,NA,-99.99,VWS Version 10.38,2013-01-30 09:19:00,
2013-01-30 04:24:00,41.0,36.8,30.14,ESE,112,0.0,0.0,85,0.00,NA,NA,-99.99,VWS Version 10.38,2013-01-30 09:24:00,
2013-01-30 04:34:00,42.1,37.9,30.14,SE,127,0.0,0.0,85,0.00,NA,NA,-99.99,VWS Version 10.38,2013-01-30 09:34:00,
2013-01-30 04:39:00,42.4,38.3,30.14,ESE,102,0.0,0.0,85,0.00,NA,NA,-99.99,VWS Version 10.38,2013-01-30 09:39:00,
2013-01-30 04:44:00,42.8,38.3,30.14,ESE,117,0.0,0.0,84,0.00,NA,NA,-99.99,VWS Version 10.38,2013-01-30 09:44:00,
2013-01-30 04:49:00,42.6,38.4,30.14,SE,139,0.0,0.0,85,0.00,NA,NA,-99.99,VWS Version 10.38,2013-01-30 09:49:00,
2013-01-30 04:54:00,43.3,39.1,30.14,ENE,74,3.1,3.1,85,0.00,NA,NA,-99.99,VWS Version 10.38,2013-01-30 09:54:00,
2013-01-30 04:59:00,44.1,39.8,30.14,East,90,0.0,0.0,85,0.00,NA,NA,-99.99,VWS Version 10.38,2013-01-30 09:59:00,
2013-01-30 05:04:00,44.6,40.4,30.11,SE,138,3.6,3.6,85,0.00,NA,NA,-99.99,VWS Version 10.38,2013-01-30 10:04:00,
2013-01-30 05:09:00,45.0,41.0,30.11,ESE,119,3.6,3.6,86,0.00,NA,NA,-99.99,VWS Version 10.38,2013-01-30 10:09:00,
2013-01-30 05:14:00,45.3,41.4,30.11,ESE,115,0.0,0.0,86,0.00,NA,NA,-99.99,VWS Version 10.38,2013-01-30 10:14:00,
2013-01-30 05:19:00,45.7,41.7,30.11,ESE,106,3.1,3.1,86,0.00,NA,NA,-99.99,VWS Version 10.38,2013-01-30 10:19:00,
2013-01-30 05:24:00,45.9,41.9,30.11,East,93,0.0,0.0,86,0.00,NA,NA,-99.99,VWS Version 10.38,2013-01-30 10:24:00,
2013-01-30 05:29:00,46.0,42.1,30.11,East,93,0.0,0.0,86,0.00,NA,NA,-99.99,VWS Version 10.38,2013-01-30 10:29:00,
2013-01-30 05:34:00,46.2,42.3,30.11,SE,141,0.0,0.0,86,0.00,NA,NA,-99.99,VWS Version 10.38,2013-01-30 10:34:00,
2013-01-30 05:39:00,46.2,42.3,30.11,ESE,114,3.6,3.6,86,0.00,NA,NA,-99.99,VWS Version 10.38,2013-01-30 10:39:00,
2013-01-30 05:44:00,46.4,42.5,30.11,SE,134,0.0,0.0,86,0.00,NA,NA,-99.99,VWS Version 10.38,2013-01-30 10:44:00,
2013-01-30 05:49:00,46.4,42.5,30.11,SE,137,0.0,0.0,86,0.00,NA,NA,-99.99,VWS Version 10.38,2013-01-30 10:49:00,
2013-01-30 05:54:00,46.8,42.8,30.11,SE,136,0.0,0.0,86,0.00,NA,NA,-99.99,VWS Version 10.38,2013-01-30 10:54:00,
2013-01-30 05:59:00,47.3,43.6,30.11,SE,144,2.7,2.7,87,0.00,NA,NA,-99.99,VWS Version 10.38,2013-01-30 10:59:00,
2013-01-30 06:04:00,47.5,43.8,30.11,South,189,3.1,3.1,87,0.00,NA,NA,-99.99,VWS Version 10.38,2013-01-30 11:04:00,
2013-01-30 06:09:00,47.5,43.8,30.11,SE,131,0.0,0.0,87,0.00,NA,NA,-99.99,VWS Version 10.38,2013-01-30 11:09:00,
2013-01-30 06:14:00,47.5,43.8,30.11,SE,126,3.1,3.1,87,0.00,NA,NA,-99.99,VWS Version 10.38,2013-01-30 11:14:00,
2013-01-30 06:19:00,47.7,44.0,30.08,South,180,0.0,0.0,87,0.00,NA,NA,-99.99,VWS Version 10.38,2013-01-30 11:19:00,
2013-01-30 06:24:00,47.7,44.0,30.08,SSW,196,0.0,0.0,87,0.00,NA,NA,-99.99,VWS Version 10.38,2013-01-30 11:24:00,
2013-01-30 06:29:00,47.7,44.0,30.08,SSE,156,3.6,3.6,87,0.00,NA,NA,-99.99,VWS Version 10.38,2013-01-30 11:29:00,
2013-01-30 06:34:00,47.8,44.5,30.11,SSE,155,6.3,6.3,88,0.00,NA,NA,-99.99,VWS Version 10.38,2013-01-30 11:34:00,
2013-01-30 06:39:00,48.2,44.8,30.11,ESE,113,0.0,0.0,88,0.00,NA,NA,-99.99,VWS Version 10.38,2013-01-30 11:39:00,
2013-01-30 06:44:00,48.2,44.8,30.11,SE,124,3.6,3.6,88,0.00,NA,NA,-99.99,VWS Version 10.38,2013-01-30 11:44:00,
2013-01-30 06:49:00,48.4,45.0,30.08,SE,144,4.0,4.0,88,0.00,NA,NA,-99.99,VWS Version 10.38,2013-01-30 11:49:00,
2013-01-30 06:54:00,48.6,45.5,30.08,South,183,3.6,3.6,89,0.00,NA,NA,-99.99,VWS Version 10.38,2013-01-30 11:54:00,
2013-01-30 06:59:00,48.9,45.8,30.08,SSE,151,0.0,0.0,89,0.00,NA,NA,-99.99,VWS Version 10.38,2013-01-30 11:59:00,
2013-01-30 07:04:00,48.9,45.8,30.08,SSW,212,4.5,4.5,89,0.00,NA,NA,-99.99,VWS Version 10.38,2013-01-30 12:04:00,
2013-01-30 07:09:00,49.1,46.3,30.08,South,189,2.7,2.7,90,0.00,NA,NA,-99.99,VWS Version 10.38,2013-01-30 12:09:00,
2013-01-30 07:14:00,49.1,46.3,30.08,East,96,4.0,4.0,90,0.00,NA,NA,-99.99,VWS Version 10.38,2013-01-30 12:14:00,
2013-01-30 07:19:00,49.1,46.3,30.08,SE,133,0.0,0.0,90,0.00,NA,NA,-99.99,VWS Version 10.38,2013-01-30 12:19:00,
2013-01-30 07:24:00,49.1,46.3,30.08,SE,137,4.0,4.0,90,0.00,NA,NA,-99.99,VWS Version 10.38,2013-01-30 12:24:00,
2013-01-30 07:29:00,49.3,46.5,30.08,SSW,199,3.1,3.1,90,0.00,NA,NA,-99.99,VWS Version 10.38,2013-01-30 12:29:00,
2013-01-30 07:34:00,49.3,46.5,30.05,SW,216,3.1,3.1,90,0.00,NA,NA,-99.99,VWS Version 10.38,2013-01-30 12:34:00,
2013-01-30 07:39:00,49.5,46.7,30.05,SE,129,3.1,3.1,90,0.00,NA,NA,-99.99,VWS Version 10.38,2013-01-30 12:39:00,
2013-01-30 07:44:00,49.5,46.7,30.05,South,172,2.7,2.7,90,0.00,NA,NA,-99.99,VWS Version 10.38,2013-01-30 12:44:00,
2013-01-30 07:49:00,49.5,46.7,30.05,SE,144,0.0,0.0,90,0.00,NA,NA,-99.99,VWS Version 10.38,2013-01-30 12:49:00,
2013-01-30 07:59:00,49.6,47.1,30.05,SSW,199,4.9,4.9,91,0.00,NA,NA,-99.99,VWS Version 10.38,2013-01-30 12:59:00,
2013-01-30 15:35:00,53.2,50.4,29.82,SSW,204,4.0,4.0,90,0.00,NA,NA,-99.99,VWS Version 10.38,2013-01-30 20:35:00,
2013-01-30 15:40:00,53.2,50.4,29.82,SSE,153,2.7,2.7,90,0.00,NA,NA,-99.99,VWS Version 10.38,2013-01-30 20:40:00,
2013-01-30 15:45:00,53.2,50.4,29.82,South,172,6.3,6.3,90,0.00,NA,NA,-99.99,VWS Version 10.38,2013-01-30 20:45:00,
2013-01-30 15:50:00,53.2,50.4,29.82,South,173,4.0,4.0,90,0.00,NA,NA,-99.99,VWS Version 10.38,2013-01-30 20:50:00,
2013-01-30 15:55:00,53.1,50.5,29.82,South,170,3.6,3.6,91,0.00,NA,NA,-99.99,VWS Version 10.38,2013-01-30 20:55:00,
2013-01-30 16:00:00,53.1,50.5,29.82,SE,136,0.0,0.0,91,0.00,NA,NA,-99.99,VWS Version 10.38,2013-01-30 21:00:00,
2013-01-30 16:10:00,53.1,50.5,29.82,SE,143,3.1,3.1,91,0.00,NA,NA,-99.99,VWS Version 10.38,2013-01-30 21:10:00,
2013-01-30 16:15:00,53.1,50.5,29.82,SSE,158,4.0,4.0,91,0.00,NA,NA,-99.99,VWS Version 10.38,2013-01-30 21:15:00,
2013-01-30 16:20:00,53.1,50.5,29.82,SSE,166,4.9,4.9,91,0.00,NA,NA,-99.99,VWS Version 10.38,2013-01-30 21:20:00,
2013-01-30 16:25:00,53.1,50.5,29.82,SE,128,3.1,3.1,91,0.00,NA,NA,-99.99,VWS Version 10.38,2013-01-30 21:25:00,
2013-01-30 16:30:00,53.4,51.2,29.82,South,184,4.0,4.0,92,0.00,NA,NA,-99.99,VWS Version 10.38,2013-01-30 21:30:00,
2013-01-30 16:35:00,53.4,51.2,29.82,South,183,3.6,3.6,92,0.00,NA,NA,-99.99,VWS Version 10.38,2013-01-30 21:35:00,
2013-01-30 16:45:00,53.6,51.3,29.82,South,186,5.4,5.4,92,0.00,NA,NA,-99.99,VWS Version 10.38,2013-01-30 21:45:00,
2013-01-30 16:50:00,53.8,51.5,29.82,South,187,3.1,3.1,92,0.00,NA,NA,-99.99,VWS Version 10.38,2013-01-30 21:50:00,
2013-01-30 16:55:00,54.0,51.7,29.82,SSE,160,6.3,6.3,92,0.00,NA,NA,-99.99,VWS Version 10.38,2013-01-30 21:55:00,
2013-01-30 17:00:00,54.1,51.9,29.82,SSW,203,3.1,3.1,92,0.00,NA,NA,-99.99,VWS Version 10.38,2013-01-30 22:00:00,
2013-01-30 17:05:00,54.1,52.2,29.82,SE,146,8.1,8.1,93,0.00,NA,NA,-99.99,VWS Version 10.38,2013-01-30 22:05:00,
2013-01-30 17:10:00,54.3,52.3,29.82,SSW,212,8.3,8.3,93,0.00,NA,NA,-99.99,VWS Version 10.38,2013-01-30 22:10:00,
2013-01-30 17:15:00,54.3,52.3,29.82,South,186,5.8,5.8,93,0.00,NA,NA,-99.99,VWS Version 10.38,2013-01-30 22:15:00,
2013-01-30 17:24:00,54.5,52.5,29.79,SW,218,5.4,5.4,93,0.00,NA,NA,-99.99,VWS Version 10.38,2013-01-30 22:24:00,
2013-01-30 17:29:00,54.5,52.8,29.79,SSW,205,3.6,3.6,94,0.00,NA,NA,-99.99,VWS Version 10.38,2013-01-30 22:29:00,
2013-01-30 17:39:00,55.0,53.3,29.79,SSW,203,8.3,8.3,94,0.00,NA,NA,-99.99,VWS Version 10.38,2013-01-30 22:39:00,
2013-01-30 17:44:00,55.0,53.3,29.79,ENE,71,3.6,3.6,94,0.00,NA,NA,-99.99,VWS Version 10.38,2013-01-30 22:44:00,
2013-01-30 18:04:00,55.4,53.7,29.79,SSW,211,7.6,7.6,94,0.00,NA,NA,-99.99,VWS Version 10.38,2013-01-30 23:04:00,
2013-01-30 18:09:00,55.6,53.9,29.79,South,170,5.4,5.4,94,0.00,NA,NA,-99.99,VWS Version 10.38,2013-01-30 23:09:00,
2013-01-30 18:14:00,55.4,53.7,29.79,SW,214,2.2,2.2,94,0.00,NA,NA,-99.99,VWS Version 10.38,2013-01-30 23:14:00,
2013-01-30 18:19:00,55.4,53.7,29.79,South,169,3.6,3.6,94,0.00,NA,NA,-99.99,VWS Version 10.38,2013-01-30 23:19:00,
2013-01-30 18:29:00,55.6,53.9,29.79,SW,229,6.3,6.3,94,0.00,NA,NA,-99.99,VWS Version 10.38,2013-01-30 23:29:00,
2013-01-30 18:34:00,55.6,53.9,29.76,SE,126,5.4,5.4,94,0.00,NA,NA,-99.99,VWS Version 10.38,2013-01-30 23:34:00,
2013-01-30 18:44:00,55.8,54.1,29.76,South,190,10.5,10.5,94,0.00,NA,NA,-99.99,VWS Version 10.38,2013-01-30 23:44:00,
2013-01-30 18:49:00,55.9,54.2,29.76,SW,226,3.6,3.6,94,0.00,NA,NA,-99.99,VWS Version 10.38,2013-01-30 23:49:00,
2013-01-30 18:54:00,55.9,54.2,29.76,WSW,239,3.6,3.6,94,0.00,NA,NA,-99.99,VWS Version 10.38,2013-01-30 23:54:00,
2013-01-30 18:59:00,55.9,54.2,29.76,SSW,197,5.8,5.8,94,0.00,NA,NA,-99.99,VWS Version 10.38,2013-01-30 23:59:00,
2013-01-30 19:09:00,56.1,54.4,29.76,SW,232,4.9,4.9,94,0.00,NA,NA,-99.99,VWS Version 10.38,2013-01-31 00:09:00,
2013-01-30 19:14:00,56.1,54.4,29.76,ESE,110,5.4,5.4,94,0.00,NA,NA,-99.99,VWS Version 10.38,2013-01-31 00:14:00,
2013-01-30 19:19:00,56.3,54.6,29.76,SSW,211,5.8,5.8,94,0.00,NA,NA,-99.99,VWS Version 10.38,2013-01-31 00:19:00,
2013-01-30 19:24:00,56.3,54.6,29.76,South,189,7.2,7.2,94,0.00,NA,NA,-99.99,VWS Version 10.38,2013-01-31 00:24:00,
2013-01-30 19:29:00,56.1,54.4,29.76,SW,220,5.4,5.4,94,0.00,NA,NA,-99.99,VWS Version 10.38,2013-01-31 00:29:00,
2013-01-30 19:34:00,56.1,54.4,29.76,SSW,209,5.8,5.8,94,0.00,NA,NA,-99.99,VWS Version 10.38,2013-01-31 00:34:00,
2013-01-30 19:44:00,55.9,54.2,29.76,SW,222,5.8,5.8,94,0.00,NA,NA,-99.99,VWS Version 10.38,2013-01-31 00:44:00,
2013-01-30 19:49:00,55.9,54.0,29.76,SW,231,6.7,6.7,93,0.00,NA,NA,-99.99,VWS Version 10.38,2013-01-31 00:49:00,
2013-01-30 19:54:00,55.8,53.8,29.76,West,276,5.4,5.4,93,0.00,NA,NA,-99.99,VWS Version 10.38,2013-01-31 00:54:00,
2013-01-30 19:59:00,55.6,53.6,29.76,SSE,163,0.0,0.0,93,0.00,NA,NA,-99.99,VWS Version 10.38,2013-01-31 00:59:00,
2013-01-30 20:04:00,55.2,53.2,29.76,WSW,252,12.8,12.8,93,0.00,NA,NA,-99.99,VWS Version 10.38,2013-01-31 01:04:00,
2013-01-30 20:09:00,55.0,52.8,29.76,SE,145,3.1,3.1,92,0.00,NA,NA,-99.99,VWS Version 10.38,2013-01-31 01:09:00,
2013-01-30 20:14:00,54.9,52.6,29.76,WNW,282,0.0,0.0,92,0.00,NA,NA,-99.99,VWS Version 10.38,2013-01-31 01:14:00,
2013-01-30 20:24:00,54.5,52.2,29.76,SSW,208,6.3,6.3,92,0.00,NA,NA,-99.99,VWS Version 10.38,2013-01-31 01:24:00,
2013-01-30 20:29:00,54.3,51.8,29.76,WNW,302,3.6,3.6,91,0.00,NA,NA,-99.99,VWS Version 10.38,2013-01-31 01:29:00,
2013-01-30 20:34:00,54.3,51.8,29.76,South,178,3.6,3.6,91,0.00,NA,NA,-99.99,VWS Version 10.38,2013-01-31 01:34:00,
2013-01-30 20:39:00,54.3,51.8,29.76,WSW,240,5.4,5.4,91,0.00,NA,NA,-99.99,VWS Version 10.38,2013-01-31 01:39:00,
2013-01-30 20:49:00,54.5,52.2,29.73,SSW,212,5.8,5.8,92,0.00,NA,NA,-99.99,VWS Version 10.38,2013-01-31 01:49:00,
2013-01-30 20:54:00,54.5,52.2,29.73,SW,235,5.4,5.4,92,0.00,NA,NA,-99.99,VWS Version 10.38,2013-01-31 01:54:00,
2013-01-30 21:04:00,54.5,52.2,29.73,WSW,256,5.8,5.8,92,0.00,NA,NA,-99.99,VWS Version 10.38,2013-01-31 02:04:00,
2013-01-30 21:09:00,54.7,52.4,29.73,SSE,163,4.9,4.9,92,0.00,NA,NA,-99.99,VWS Version 10.38,2013-01-31 02:09:00,
2013-01-30 21:14:00,54.7,52.4,29.73,SSW,213,5.8,5.8,92,0.00,NA,NA,-99.99,VWS Version 10.38,2013-01-31 02:14:00,
2013-01-30 21:19:00,54.5,52.2,29.73,East,90,3.6,3.6,92,0.00,NA,NA,-99.99,VWS Version 10.38,2013-01-31 02:19:00,
2013-01-30 21:24:00,54.5,52.2,29.73,SSW,210,4.0,4.0,92,0.00,NA,NA,-99.99,VWS Version 10.38,2013-01-31 02:24:00,
2013-01-30 21:29:00,54.3,52.0,29.73,West,275,0.0,0.0,92,0.00,NA,NA,-99.99,VWS Version 10.38,2013-01-31 02:29:00,
2013-01-30 21:34:00,54.3,52.0,29.70,SE,139,3.1,3.1,92,0.00,NA,NA,-99.99,VWS Version 10.38,2013-01-31 02:34:00,
2013-01-30 21:44:00,54.1,51.9,29.70,East,100,3.1,3.1,92,0.00,NA,NA,-99.99,VWS Version 10.38,2013-01-31 02:44:00,
2013-01-30 21:49:00,54.1,51.9,29.70,SE,139,2.7,2.7,92,0.00,NA,NA,-99.99,VWS Version 10.38,2013-01-31 02:49:00,
2013-01-30 21:54:00,54.1,51.9,29.70,SSE,156,13.6,13.6,92,0.00,NA,NA,-99.99,VWS Version 10.38,2013-01-31 02:54:00,
2013-01-30 21:59:00,54.1,51.9,29.70,SE,142,3.1,3.1,92,0.00,NA,NA,-99.99,VWS Version 10.38,2013-01-31 02:59:00,
2013-01-30 22:04:00,54.1,51.9,29.70,SSW,209,2.2,2.2,92,0.00,NA,NA,-99.99,VWS Version 10.38,2013-01-31 03:04:00,
2013-01-30 22:09:00,54.1,52.2,29.70,SSW,202,4.0,4.0,93,0.00,NA,NA,-99.99,VWS Version 10.38,2013-01-31 03:09:00,
2013-01-30 22:19:00,54.5,52.5,29.67,South,184,5.4,5.4,93,0.00,NA,NA,-99.99,VWS Version 10.38,2013-01-31 03:19:00,
2013-01-30 22:24:00,54.5,52.5,29.67,ESE,121,5.8,5.8,93,0.00,NA,NA,-99.99,VWS Version 10.38,2013-01-31 03:24:00,
2013-01-30 22:29:00,54.7,52.7,29.67,SSW,199,6.3,6.3,93,0.00,NA,NA,-99.99,VWS Version 10.38,2013-01-31 03:29:00,
2013-01-30 22:34:00,54.7,52.7,29.67,SW,233,2.2,2.2,93,0.00,NA,NA,-99.99,VWS Version 10.38,2013-01-31 03:34:00,
2013-01-30 22:39:00,54.9,52.9,29.67,SSW,194,2.7,2.7,93,0.00,NA,NA,-99.99,VWS Version 10.38,2013-01-31 03:39:00,
2013-01-30 22:44:00,55.0,53.3,29.67,SSW,203,8.1,8.1,94,0.00,NA,NA,-99.99,VWS Version 10.38,2013-01-31 03:44:00,
2013-01-30 22:49:00,55.2,53.5,29.67,SSE,148,6.3,6.3,94,0.00,NA,NA,-99.99,VWS Version 10.38,2013-01-31 03:49:00,
2013-01-30 22:54:00,55.2,53.5,29.67,South,172,4.0,4.0,94,0.00,NA,NA,-99.99,VWS Version 10.38,2013-01-31 03:54:00,